WJA1112 CYYZ-KFLL

Flight info

Callsign WJA1112
Flight time N/A
Altitude 36000
Route BETES3 AIRRA Q103 SLOJO/N0457F370 DCT EFFAY/N0460F380 Q83 JEVED Q97 PRMUS CUUDA3
Aircraft B38M/M-SDE1FGHILORVWXY/HB1

Departure

Time N/A
Airport Toronto Pearson International Airport (CYYZ)

Arrival

Time 2026-05-03 22:35
Airport Fort Lauderdale Hollywood International Airport (KFLL)
Time Latitude Longitude Altitude Speed Heading
2026-05-03 20:15 40.16249 -80.07014 36070 ft 462 kts 187°
2026-05-03 20:15 40.09817 -80.07058 36081 ft 463 kts 187°
2026-05-03 20:16 40.03380 -80.07102 36064 ft 462 kts 188°
2026-05-03 20:16 39.96978 -80.07146 36083 ft 460 kts 188°
2026-05-03 20:17 39.90580 -80.07190 36086 ft 460 kts 188°
2026-05-03 20:17 39.84341 -80.07233 36086 ft 460 kts 188°
2026-05-03 20:18 39.77948 -80.07276 36075 ft 459 kts 189°
2026-05-03 20:18 39.71553 -80.07320 36073 ft 459 kts 189°
2026-05-03 20:19 39.65162 -80.07363 36077 ft 459 kts 189°
2026-05-03 20:19 39.58768 -80.07408 36045 ft 459 kts 189°
2026-05-03 20:20 39.52363 -80.07460 36079 ft 461 kts 189°
2026-05-03 20:20 39.45955 -80.07564 36086 ft 460 kts 189°
2026-05-03 20:21 39.39549 -80.07662 36084 ft 460 kts 189°
2026-05-03 20:21 39.33141 -80.07759 36082 ft 462 kts 189°
2026-05-03 20:22 39.26711 -80.07857 36080 ft 462 kts 189°
2026-05-03 20:22 39.20288 -80.07954 36080 ft 461 kts 189°
2026-05-03 20:23 39.13870 -80.08051 36066 ft 461 kts 190°
2026-05-03 20:23 39.07442 -80.08148 36096 ft 462 kts 190°
2026-05-03 20:24 39.02109 -80.08228 36091 ft 461 kts 190°
2026-05-03 20:24 38.95686 -80.08325 36096 ft 462 kts 190°
2026-05-03 20:25 38.89503 -80.09387 36120 ft 438 kts 205°
2026-05-03 20:25 38.83560 -80.11397 36100 ft 441 kts 205°
2026-05-03 20:26 38.77626 -80.13459 36101 ft 441 kts 205°
2026-05-03 20:26 38.71705 -80.15533 36114 ft 441 kts 205°
2026-05-03 20:27 38.65788 -80.17603 36110 ft 440 kts 205°
2026-05-03 20:27 38.59918 -80.19654 36129 ft 440 kts 205°
2026-05-03 20:28 38.53971 -80.21727 36121 ft 440 kts 205°
2026-05-03 20:28 38.48096 -80.23773 36078 ft 440 kts 205°
2026-05-03 20:29 38.42195 -80.25823 36123 ft 439 kts 205°
2026-05-03 20:29 38.36302 -80.27868 36123 ft 439 kts 205°
2026-05-03 20:30 38.30408 -80.29909 36117 ft 439 kts 205°
2026-05-03 20:30 38.24516 -80.31946 36086 ft 438 kts 205°
2026-05-03 20:31 38.18619 -80.33899 36108 ft 444 kts 199°
2026-05-03 20:31 38.15485 -80.34161 36124 ft 456 kts 190°
2026-05-03 20:31 38.12321 -80.34243 36103 ft 456 kts 192°
2026-05-03 20:32 38.05983 -80.34526 36127 ft 456 kts 192°
2026-05-03 20:32 37.99646 -80.34814 36109 ft 455 kts 192°
2026-05-03 20:33 37.93317 -80.35103 36105 ft 455 kts 192°
2026-05-03 20:33 37.86983 -80.35391 36102 ft 455 kts 192°
2026-05-03 20:34 37.80652 -80.35678 36111 ft 455 kts 192°
2026-05-03 20:34 37.74337 -80.35965 36099 ft 453 kts 192°
2026-05-03 20:35 37.68039 -80.36250 36102 ft 453 kts 192°
2026-05-03 20:35 37.61761 -80.36533 36107 ft 452 kts 192°
2026-05-03 20:36 37.55474 -80.36817 36068 ft 452 kts 192°
2026-05-03 20:36 37.49214 -80.37098 36108 ft 449 kts 192°
2026-05-03 20:37 37.42976 -80.37379 36108 ft 448 kts 192°
2026-05-03 20:37 37.36738 -80.37659 36101 ft 449 kts 192°
2026-05-03 20:38 37.30500 -80.37938 36076 ft 447 kts 192°
2026-05-03 20:38 37.24348 -80.38213 36119 ft 445 kts 192°
2026-05-03 20:39 37.18158 -80.38490 36125 ft 445 kts 192°
2026-05-03 20:39 37.11964 -80.38766 36125 ft 445 kts 192°
2026-05-03 20:40 37.05783 -80.39041 36094 ft 443 kts 192°
2026-05-03 20:40 36.99630 -80.39314 36107 ft 442 kts 192°
2026-05-03 20:41 36.93494 -80.39586 36120 ft 442 kts 192°
2026-05-03 20:41 36.87353 -80.39858 36101 ft 441 kts 192°
2026-05-03 20:42 36.81216 -80.40130 36075 ft 441 kts 192°
2026-05-03 20:42 36.75089 -80.40400 36098 ft 440 kts 192°
2026-05-03 20:43 36.68969 -80.40669 36092 ft 440 kts 192°
2026-05-03 20:43 36.62848 -80.40936 36062 ft 440 kts 192°
2026-05-03 20:44 36.56742 -80.41207 36104 ft 440 kts 192°
2026-05-03 20:44 36.50627 -80.41475 36098 ft 439 kts 192°
2026-05-03 20:45 36.44515 -80.41743 36100 ft 439 kts 192°
2026-05-03 20:45 36.38405 -80.42010 36098 ft 439 kts 192°
2026-05-03 20:46 36.32297 -80.42277 36084 ft 438 kts 192°
2026-05-03 20:46 36.26208 -80.42542 36086 ft 438 kts 192°
2026-05-03 20:47 36.20162 -80.42805 36087 ft 438 kts 192°
2026-05-03 20:47 36.14073 -80.43070 36092 ft 438 kts 192°
2026-05-03 20:48 36.07992 -80.43334 36080 ft 435 kts 192°
2026-05-03 20:48 36.01948 -80.43596 36089 ft 434 kts 192°
2026-05-03 20:49 35.95910 -80.43857 36108 ft 434 kts 192°
2026-05-03 20:49 35.89865 -80.44118 36105 ft 434 kts 192°
2026-05-03 20:50 35.83830 -80.44378 36091 ft 433 kts 192°
2026-05-03 20:50 35.77818 -80.44637 36101 ft 432 kts 192°
2026-05-03 20:51 35.71808 -80.44896 36099 ft 432 kts 192°
2026-05-03 20:51 35.65799 -80.45153 36101 ft 432 kts 192°
2026-05-03 20:52 35.59795 -80.45411 36104 ft 432 kts 192°
2026-05-03 20:52 35.53784 -80.45668 36103 ft 432 kts 192°
2026-05-03 20:53 35.47774 -80.45925 36107 ft 432 kts 192°
2026-05-03 20:53 35.41773 -80.46181 36114 ft 432 kts 192°
2026-05-03 20:54 35.35767 -80.46437 36095 ft 431 kts 192°
2026-05-03 20:54 35.26818 -80.46817 36130 ft 428 kts 192°
2026-05-03 20:55 35.20859 -80.47070 36135 ft 429 kts 192°
2026-05-03 20:55 35.14895 -80.47323 36113 ft 428 kts 192°
2026-05-03 20:56 35.08941 -80.47575 36101 ft 427 kts 192°
2026-05-03 20:56 35.03004 -80.47826 36105 ft 427 kts 192°
2026-05-03 20:57 34.97068 -80.48077 36107 ft 427 kts 192°
2026-05-03 20:57 34.91132 -80.48327 36113 ft 427 kts 192°
2026-05-03 20:58 34.85199 -80.48577 36081 ft 426 kts 193°
2026-05-03 20:58 34.79287 -80.48825 36122 ft 425 kts 193°
2026-05-03 20:59 34.73377 -80.49073 36131 ft 425 kts 193°
2026-05-03 20:59 34.67466 -80.49320 36135 ft 425 kts 193°
2026-05-03 21:00 34.63556 -80.49484 36133 ft 425 kts 193°
2026-05-03 21:00 34.55669 -80.49814 36119 ft 423 kts 193°
2026-05-03 21:01 34.49788 -80.50059 36131 ft 423 kts 193°
2026-05-03 21:01 34.43899 -80.50304 36102 ft 423 kts 193°
2026-05-03 21:02 34.38012 -80.50549 36093 ft 423 kts 193°
2026-05-03 21:02 34.32140 -80.50793 36096 ft 421 kts 193°
2026-05-03 21:03 34.26339 -80.51069 36094 ft 415 kts 198°
2026-05-03 21:03 34.23590 -80.51786 36120 ft 401 kts 205°
2026-05-03 21:03 34.20820 -80.52597 36079 ft 405 kts 204°
2026-05-03 21:04 34.15396 -80.54196 36116 ft 404 kts 204°
2026-05-03 21:04 34.09921 -80.55832 36053 ft 406 kts 204°
2026-05-03 21:05 34.04484 -80.57458 36082 ft 401 kts 204°
2026-05-03 21:05 33.99070 -80.59076 36086 ft 401 kts 204°
2026-05-03 21:06 33.93652 -80.60692 36084 ft 401 kts 204°
2026-05-03 21:06 33.88230 -80.62307 36090 ft 401 kts 204°
2026-05-03 21:07 33.83732 -80.63646 36075 ft 400 kts 204°
2026-05-03 21:07 33.78360 -80.65243 36095 ft 397 kts 205°
2026-05-03 21:08 33.72997 -80.66835 36119 ft 397 kts 204°
2026-05-03 21:08 33.67635 -80.68425 36109 ft 397 kts 204°
2026-05-03 21:09 33.62272 -80.70013 36112 ft 397 kts 204°
2026-05-03 21:09 33.56921 -80.71595 36095 ft 394 kts 205°
2026-05-03 21:10 33.51604 -80.73165 36101 ft 393 kts 205°
2026-05-03 21:10 33.46297 -80.74727 36104 ft 393 kts 205°
2026-05-03 21:11 33.40983 -80.76290 36102 ft 393 kts 205°
2026-05-03 21:11 33.35671 -80.77850 36110 ft 393 kts 205°
2026-05-03 21:12 33.30366 -80.79406 36096 ft 391 kts 205°
2026-05-03 21:12 33.25079 -80.80954 36112 ft 391 kts 205°
2026-05-03 21:13 33.19795 -80.82500 36118 ft 391 kts 205°
2026-05-03 21:13 33.14509 -80.84045 36124 ft 391 kts 205°
2026-05-03 21:14 33.09227 -80.85587 36126 ft 391 kts 205°
2026-05-03 21:14 33.03942 -80.87127 36124 ft 391 kts 205°
2026-05-03 21:15 32.98660 -80.88665 36121 ft 391 kts 205°
2026-05-03 21:15 32.93407 -80.90192 36122 ft 391 kts 205°
2026-05-03 21:16 32.88088 -80.91737 36129 ft 391 kts 204°
2026-05-03 21:16 32.82788 -80.93274 36076 ft 392 kts 204°
2026-05-03 21:17 32.78384 -80.94550 36115 ft 391 kts 204°
2026-05-03 21:17 32.72234 -80.96330 36128 ft 391 kts 204°
2026-05-03 21:18 32.66951 -80.97857 36124 ft 391 kts 204°
2026-05-03 21:18 32.61664 -80.99383 36126 ft 391 kts 204°
2026-05-03 21:19 32.56377 -81.00907 36076 ft 391 kts 204°
2026-05-03 21:19 32.50954 -81.01883 36139 ft 407 kts 192°
2026-05-03 21:20 32.45298 -81.02016 36121 ft 406 kts 193°
2026-05-03 21:20 32.39644 -81.02127 36126 ft 407 kts 193°
2026-05-03 21:21 32.33986 -81.02228 36122 ft 407 kts 193°
2026-05-03 21:21 32.28328 -81.02328 36101 ft 406 kts 193°
2026-05-03 21:22 32.22688 -81.02428 36112 ft 405 kts 193°
2026-05-03 21:22 32.17050 -81.02528 36113 ft 405 kts 193°
2026-05-03 21:23 32.11407 -81.02628 36091 ft 405 kts 193°
2026-05-03 21:23 32.05775 -81.02727 36084 ft 405 kts 193°
2026-05-03 21:24 32.00143 -81.02833 36064 ft 403 kts 193°
2026-05-03 21:24 31.94544 -81.02989 36083 ft 402 kts 193°
2026-05-03 21:25 31.88950 -81.03141 36092 ft 402 kts 193°
2026-05-03 21:25 31.83362 -81.03291 36100 ft 402 kts 193°
2026-05-03 21:26 31.77772 -81.03442 36109 ft 402 kts 193°
2026-05-03 21:26 31.72183 -81.03592 36109 ft 401 kts 193°
2026-05-03 21:27 31.66600 -81.03742 36127 ft 401 kts 193°
2026-05-03 21:27 31.61020 -81.03892 36133 ft 401 kts 193°
2026-05-03 21:28 31.55476 -81.04201 36135 ft 398 kts 194°
2026-05-03 21:28 31.49938 -81.04555 36132 ft 399 kts 194°
2026-05-03 21:29 31.44397 -81.04904 36128 ft 399 kts 194°
2026-05-03 21:29 31.38858 -81.05251 36131 ft 398 kts 194°
2026-05-03 21:30 31.33323 -81.05597 36131 ft 398 kts 194°
2026-05-03 21:30 31.27788 -81.05943 36138 ft 398 kts 194°
2026-05-03 21:31 31.22219 -81.06124 36139 ft 402 kts 192°
2026-05-03 21:31 31.16668 -81.06236 36124 ft 402 kts 192°
2026-05-03 21:32 31.11072 -81.06357 36129 ft 402 kts 192°
2026-05-03 21:32 31.05475 -81.06478 36132 ft 402 kts 192°
2026-05-03 21:33 30.99881 -81.06599 36133 ft 402 kts 192°
2026-05-03 21:33 30.94291 -81.06720 36128 ft 402 kts 192°
2026-05-03 21:34 30.88697 -81.06842 36131 ft 403 kts 192°
2026-05-03 21:34 30.83095 -81.06963 36130 ft 402 kts 192°
2026-05-03 21:35 30.77501 -81.07083 36128 ft 402 kts 192°
2026-05-03 21:35 30.71905 -81.07204 36130 ft 402 kts 192°
2026-05-03 21:36 30.66306 -81.07324 36128 ft 402 kts 192°
2026-05-03 21:36 30.60731 -81.07564 36145 ft 400 kts 194°
2026-05-03 21:37 30.55169 -81.07906 36125 ft 400 kts 194°
2026-05-03 21:37 30.49612 -81.08237 36127 ft 400 kts 194°
2026-05-03 21:38 30.44128 -81.08558 36129 ft 380 kts 195°
2026-05-03 21:38 30.38974 -81.08868 36128 ft 371 kts 195°
2026-05-03 21:39 30.33856 -81.09173 36126 ft 371 kts 195°
2026-05-03 21:39 30.28667 -81.09480 36123 ft 371 kts 195°
2026-05-03 21:40 30.23509 -81.09785 36123 ft 371 kts 195°
2026-05-03 21:40 30.18389 -81.10088 36121 ft 371 kts 195°
2026-05-03 21:41 30.13234 -81.10392 36124 ft 371 kts 195°
2026-05-03 21:41 30.08079 -81.10697 36088 ft 371 kts 195°
2026-05-03 21:42 30.02912 -81.11001 36125 ft 372 kts 195°
2026-05-03 21:42 29.97748 -81.11305 36125 ft 371 kts 195°
2026-05-03 21:43 29.92583 -81.11609 36127 ft 371 kts 195°
2026-05-03 21:43 29.87378 -81.11915 36128 ft 379 kts 195°
2026-05-03 21:44 29.81983 -81.11912 36110 ft 410 kts 181°
2026-05-03 21:44 29.79184 -81.10850 36107 ft 435 kts 170°
2026-05-03 21:44 29.76383 -81.09514 36116 ft 437 kts 171°
2026-05-03 21:45 29.70757 -81.06804 36119 ft 438 kts 170°
2026-05-03 21:45 29.65140 -81.04058 36107 ft 439 kts 170°
2026-05-03 21:46 29.59530 -81.01314 36118 ft 439 kts 170°
2026-05-03 21:46 29.53911 -80.98568 36115 ft 438 kts 170°
2026-05-03 21:47 29.48293 -80.95826 36102 ft 439 kts 171°
2026-05-03 21:47 29.42658 -80.93078 36110 ft 440 kts 171°
2026-05-03 21:48 29.37984 -80.90801 36088 ft 439 kts 170°
2026-05-03 21:48 29.32351 -80.88061 36108 ft 440 kts 171°
2026-05-03 21:49 29.26719 -80.85325 36109 ft 439 kts 171°
2026-05-03 21:49 29.21089 -80.82593 36063 ft 439 kts 171°
2026-05-03 21:50 29.15447 -80.79857 36110 ft 441 kts 171°
2026-05-03 21:50 29.09803 -80.77125 36098 ft 440 kts 171°
2026-05-03 21:51 29.04157 -80.74395 36095 ft 440 kts 171°
2026-05-03 21:51 28.98512 -80.71667 36098 ft 440 kts 171°
2026-05-03 21:52 28.92846 -80.69122 36094 ft 438 kts 172°
2026-05-03 21:52 28.87164 -80.66579 36089 ft 440 kts 172°
2026-05-03 21:53 28.81462 -80.64026 36074 ft 439 kts 172°
2026-05-03 21:53 28.75771 -80.61480 36072 ft 439 kts 172°
2026-05-03 21:54 28.70077 -80.58936 36059 ft 440 kts 172°
2026-05-03 21:54 28.64386 -80.56397 36047 ft 440 kts 172°
2026-05-03 21:55 28.58685 -80.53856 36031 ft 440 kts 172°
2026-05-03 21:55 28.52975 -80.51315 36030 ft 441 kts 172°
2026-05-03 21:56 28.47268 -80.48777 36034 ft 440 kts 172°
2026-05-03 21:56 28.41558 -80.46241 36037 ft 440 kts 172°
2026-05-03 21:57 28.35887 -80.43725 36039 ft 440 kts 172°
2026-05-03 21:57 28.30181 -80.41197 36013 ft 440 kts 172°
2026-05-03 21:58 28.24467 -80.38668 36050 ft 441 kts 172°
2026-05-03 21:58 28.18759 -80.36145 36052 ft 440 kts 172°
2026-05-03 21:59 28.13047 -80.33622 36053 ft 440 kts 172°
2026-05-03 21:59 28.07326 -80.31259 36055 ft 436 kts 174°
2026-05-03 22:00 28.01589 -80.29021 36006 ft 436 kts 174°
2026-05-03 22:00 27.95846 -80.26769 36053 ft 438 kts 174°
2026-05-03 22:01 27.90097 -80.24515 36062 ft 437 kts 174°
2026-05-03 22:01 27.84348 -80.22264 36054 ft 437 kts 174°
2026-05-03 22:02 27.78595 -80.20014 36055 ft 437 kts 174°
2026-05-03 22:02 27.72850 -80.17769 36062 ft 437 kts 174°
2026-05-03 22:03 27.67093 -80.15523 36048 ft 438 kts 173°
2026-05-03 22:03 27.61329 -80.13237 36050 ft 440 kts 172°
2026-05-03 22:04 27.55643 -80.10886 35774 ft 432 kts 172°
2026-05-03 22:04 27.52811 -80.09725 35046 ft 435 kts 172°
2026-05-03 22:04 27.49957 -80.08554 34269 ft 438 kts 172°
2026-05-03 22:05 27.47086 -80.07377 33478 ft 441 kts 172°
2026-05-03 22:05 27.44195 -80.06191 32712 ft 443 kts 171°
2026-05-03 22:05 27.41287 -80.04999 31999 ft 446 kts 171°
2026-05-03 22:05 27.38366 -80.03844 31279 ft 442 kts 174°
2026-05-03 22:06 27.35399 -80.02948 30465 ft 442 kts 174°
2026-05-03 22:06 27.32427 -80.02036 29641 ft 445 kts 173°
2026-05-03 22:06 27.29435 -80.01100 28822 ft 448 kts 173°
2026-05-03 22:06 27.26428 -80.00144 28006 ft 451 kts 172°
2026-05-03 22:07 27.23430 -79.99065 27271 ft 451 kts 171°
2026-05-03 22:07 27.20438 -79.97986 26858 ft 453 kts 171°
2026-05-03 22:07 27.17426 -79.96907 26238 ft 455 kts 171°
2026-05-03 22:07 27.14402 -79.95827 25535 ft 457 kts 170°
2026-05-03 22:08 27.11374 -79.94746 24887 ft 458 kts 170°
2026-05-03 22:08 27.08327 -79.93660 24198 ft 458 kts 169°
2026-05-03 22:08 27.05327 -79.92484 23454 ft 457 kts 167°
2026-05-03 22:08 27.02334 -79.91263 22642 ft 453 kts 167°
2026-05-03 22:09 26.99446 -79.90095 22060 ft 433 kts 167°
2026-05-03 22:09 26.96653 -79.88973 21443 ft 417 kts 167°
2026-05-03 22:09 26.93962 -79.87894 20834 ft 404 kts 167°
2026-05-03 22:10 26.88815 -79.85831 19692 ft 383 kts 167°
2026-05-03 22:10 26.86337 -79.84839 19139 ft 374 kts 167°
2026-05-03 22:10 26.83911 -79.83867 18593 ft 368 kts 167°
2026-05-03 22:10 26.81488 -79.82897 17993 ft 372 kts 167°
2026-05-03 22:11 26.79038 -79.81912 17278 ft 377 kts 166°
2026-05-03 22:11 26.76574 -79.80922 16748 ft 376 kts 166°
2026-05-03 22:11 26.74108 -79.79930 16228 ft 377 kts 166°
2026-05-03 22:11 26.71624 -79.79010 15632 ft 374 kts 173°
2026-05-03 22:12 26.69077 -79.78932 15045 ft 363 kts 195°
2026-05-03 22:12 26.66694 -79.79727 14583 ft 353 kts 203°
2026-05-03 22:12 26.64420 -79.80613 14119 ft 341 kts 204°
2026-05-03 22:12 26.62243 -79.81477 13580 ft 332 kts 204°
2026-05-03 22:13 26.60101 -79.82339 13055 ft 322 kts 204°
2026-05-03 22:13 26.58031 -79.83177 12586 ft 312 kts 204°
2026-05-03 22:13 26.56023 -79.83993 12152 ft 302 kts 205°
2026-05-03 22:13 26.54108 -79.84876 11709 ft 296 kts 207°
2026-05-03 22:14 26.52221 -79.85769 11214 ft 293 kts 207°
2026-05-03 22:14 26.50356 -79.86647 10785 ft 288 kts 206°
2026-05-03 22:14 26.48527 -79.87503 10380 ft 282 kts 206°
2026-05-03 22:14 26.46731 -79.88344 9976 ft 278 kts 206°
2026-05-03 22:15 26.44983 -79.89161 9534 ft 273 kts 206°
2026-05-03 22:15 26.43251 -79.89969 9127 ft 267 kts 206°
2026-05-03 22:15 26.41554 -79.90762 8733 ft 262 kts 206°
2026-05-03 22:15 26.39889 -79.91536 8383 ft 257 kts 206°
2026-05-03 22:16 26.38259 -79.92324 8029 ft 250 kts 211°
2026-05-03 22:16 26.36807 -79.93263 8025 ft 234 kts 214°
2026-05-03 22:16 26.35426 -79.94164 8021 ft 228 kts 213°
2026-05-03 22:16 26.34052 -79.95052 8024 ft 228 kts 213°
2026-05-03 22:17 26.32674 -79.95934 8022 ft 228 kts 213°
2026-05-03 22:17 26.31298 -79.96812 8014 ft 228 kts 213°
2026-05-03 22:17 26.29923 -79.97687 8009 ft 228 kts 213°
2026-05-03 22:17 26.28544 -79.98561 8008 ft 228 kts 213°
2026-05-03 22:18 26.27164 -79.99436 8008 ft 228 kts 213°
2026-05-03 22:18 26.25792 -80.00319 8015 ft 228 kts 213°
2026-05-03 22:18 26.24418 -80.01203 8008 ft 228 kts 213°
2026-05-03 22:18 26.23046 -80.02085 8006 ft 228 kts 213°
2026-05-03 22:19 26.21673 -80.02968 7994 ft 228 kts 213°
2026-05-03 22:19 26.20305 -80.03846 8002 ft 227 kts 213°
2026-05-03 22:19 26.18955 -80.04744 7996 ft 224 kts 220°
2026-05-03 22:19 26.18017 -80.06066 7980 ft 218 kts 248°
2026-05-03 22:20 26.17479 -80.07632 7889 ft 216 kts 249°
2026-05-03 22:20 26.16950 -80.09214 7525 ft 218 kts 250°
2026-05-03 22:20 26.16440 -80.10799 7240 ft 218 kts 251°
2026-05-03 22:20 26.15939 -80.12388 6954 ft 217 kts 251°
2026-05-03 22:21 26.15448 -80.13968 6673 ft 216 kts 251°
2026-05-03 22:21 26.15084 -80.15579 6381 ft 215 kts 266°
2026-05-03 22:21 26.15064 -80.17236 6102 ft 214 kts 268°
2026-05-03 22:21 26.15056 -80.18900 6001 ft 216 kts 269°
2026-05-03 22:22 26.15055 -80.20583 6003 ft 218 kts 269°
2026-05-03 22:22 26.15056 -80.22270 5999 ft 218 kts 268°
2026-05-03 22:22 26.15061 -80.23961 5999 ft 218 kts 269°
2026-05-03 22:22 26.15066 -80.25621 6003 ft 217 kts 269°
2026-05-03 22:23 26.15072 -80.27301 5990 ft 216 kts 269°
2026-05-03 22:23 26.15079 -80.28969 5691 ft 217 kts 269°
2026-05-03 22:23 26.15085 -80.30641 5400 ft 216 kts 269°
2026-05-03 22:23 26.15092 -80.32309 5094 ft 216 kts 269°
2026-05-03 22:24 26.15098 -80.33979 4804 ft 216 kts 269°
2026-05-03 22:24 26.15082 -80.35648 4545 ft 214 kts 268°
2026-05-03 22:24 26.15050 -80.37305 4245 ft 216 kts 268°
2026-05-03 22:24 26.15018 -80.38982 3982 ft 218 kts 268°
2026-05-03 22:25 26.14963 -80.40647 3920 ft 210 kts 266°
2026-05-03 22:25 26.14914 -80.42273 3661 ft 212 kts 269°
2026-05-03 22:25 26.14882 -80.43927 3309 ft 215 kts 269°
2026-05-03 22:25 26.14853 -80.45583 3072 ft 213 kts 269°
2026-05-03 22:26 26.14823 -80.47244 2995 ft 217 kts 269°
2026-05-03 22:26 26.14794 -80.48922 3027 ft 218 kts 269°
2026-05-03 22:26 26.14764 -80.50612 2994 ft 219 kts 269°
2026-05-03 22:26 26.14736 -80.52300 2987 ft 218 kts 269°
2026-05-03 22:27 26.14686 -80.53987 3000 ft 219 kts 262°
2026-05-03 22:27 26.14084 -80.55517 2964 ft 218 kts 229°
2026-05-03 22:27 26.12815 -80.56414 2983 ft 221 kts 195°
2026-05-03 22:27 26.11283 -80.56427 3010 ft 225 kts 165°
2026-05-03 22:28 26.09968 -80.55541 3037 ft 224 kts 131°
2026-05-03 22:28 26.09178 -80.54037 3097 ft 224 kts 114°
2026-05-03 22:28 26.08635 -80.52481 3022 ft 208 kts 107°
2026-05-03 22:28 26.08315 -80.50965 3007 ft 199 kts 99°
2026-05-03 22:29 26.08131 -80.49448 2996 ft 198 kts 96°
2026-05-03 22:29 26.08015 -80.47932 3042 ft 197 kts 94°
2026-05-03 22:29 26.07944 -80.46405 3041 ft 197 kts 92°
2026-05-03 22:29 26.07902 -80.44878 3014 ft 199 kts 91°
2026-05-03 22:30 26.07875 -80.43342 2997 ft 198 kts 91°
2026-05-03 22:30 26.07857 -80.41810 3000 ft 197 kts 90°
2026-05-03 22:30 26.07843 -80.40288 3009 ft 197 kts 90°
2026-05-03 22:30 26.07832 -80.38759 3043 ft 198 kts 90°
2026-05-03 22:31 26.07820 -80.37228 3060 ft 198 kts 90°
2026-05-03 22:31 26.07813 -80.36214 3048 ft 198 kts 90°
2026-05-03 22:31 26.07814 -80.34691 2967 ft 196 kts 90°
2026-05-03 22:31 26.07801 -80.33173 2801 ft 196 kts 90°
2026-05-03 22:32 26.07788 -80.31665 2576 ft 194 kts 90°
2026-05-03 22:32 26.07780 -80.30169 2330 ft 192 kts 90°
2026-05-03 22:32 26.07778 -80.28706 2129 ft 190 kts 89°
2026-05-03 22:32 26.07773 -80.27240 1901 ft 189 kts 89°
2026-05-03 22:33 26.07767 -80.25835 1602 ft 174 kts 89°
2026-05-03 22:33 26.07752 -80.24563 1396 ft 158 kts 88°
2026-05-03 22:33 26.07741 -80.23358 1151 ft 154 kts 89°
2026-05-03 22:33 26.07729 -80.22177 961 ft 153 kts 89°
2026-05-03 22:34 26.07726 -80.20983 805 ft 156 kts 87°
2026-05-03 22:34 26.07724 -80.19764 598 ft 159 kts 88°
2026-05-03 22:34 26.07710 -80.18537 445 ft 157 kts 87°
2026-05-03 22:34 26.07702 -80.17327 236 ft 156 kts 88°
2026-05-03 22:35 26.07690 -80.16136 29 ft 147 kts 88°
2026-05-03 22:35 26.07689 -80.15265 20 ft 62 kts 90°
2026-05-03 22:35 26.07645 -80.14962 23 ft 18 kts 117°
2026-05-03 22:35 26.07611 -80.14895 25 ft 4 kts 121°
2026-05-03 22:36 26.07605 -80.14884 25 ft 0 kts 122°
2026-05-03 22:36 26.07604 -80.14882 25 ft 1 kts 122°
2026-05-03 22:36 26.07601 -80.14878 25 ft 1 kts 122°
2026-05-03 22:36 26.07596 -80.14869 25 ft 2 kts 122°
2026-05-03 22:37 26.07592 -80.14861 25 ft 2 kts 122°
2026-05-03 22:37 26.07589 -80.14857 25 ft 1 kts 122°
2026-05-03 22:37 26.07568 -80.14807 26 ft 15 kts 110°
2026-05-03 22:37 26.07562 -80.14662 27 ft 21 kts 90°
2026-05-03 22:38 26.07559 -80.14491 28 ft 23 kts 92°
2026-05-03 22:38 26.07558 -80.14312 28 ft 19 kts 89°
2026-05-03 22:38 26.07493 -80.14259 27 ft 16 kts 240°
2026-05-03 22:38 26.07487 -80.14339 26 ft 0 kts 270°
2026-05-03 22:39 26.07487 -80.14341 26 ft 1 kts 270°
2026-05-03 22:40 26.07487 -80.14345 26 ft 3 kts 270°
2026-05-03 22:41 26.07487 -80.14406 26 ft 0 kts 269°
2026-05-03 22:44 26.07487 -80.14409 26 ft 3 kts 269°
2026-05-03 22:44 26.07487 -80.14487 28 ft 11 kts 270°
2026-05-03 22:44 26.07439 -80.14566 28 ft 14 kts 196°
2026-05-03 22:45 26.07386 -80.14549 27 ft 0 kts 133°
2026-05-03 22:47 26.07378 -80.14543 26 ft 2 kts 154°
2026-05-03 22:48 26.07356 -80.14536 27 ft 6 kts 167°
2026-05-03 22:48 26.07320 -80.14521 29 ft 7 kts 148°
2026-05-03 22:48 26.07299 -80.14467 25 ft 9 kts 103°
2026-05-03 22:48 26.07292 -80.14433 26 ft 0 kts 102°